Flag for U.S.A. Weather past 2 weeks in Evansville, Indiana, U.S.A.

Now
71 °F

Clear.


Feels Like: 70 °F
Forecast: 70 / 93 °F
Wind: 5 mph from Northeast

Location: Evansville Regional Airport

Current Time: Sep 5, 2015 at 5:50:19 AM

Latest Report: Sep 5, 2015 at 4:54 AM


Visibility: 5 mi

Pressure: 30.07 "Hg

Humidity: 84%

Dew point: 66 °F

Location of EvansvilleLocation

Historic Weather in Evansville — Graph

°F

Evansville temperature yesterday

Maximum temperature yesterday: 94 °F (at 3:54 PM)
Minimum temperature yesterday: 69 °F (at 6:54 AM)
Average temperature yesterday: 81 °F

Past Weeks' High & Low Weather Summary

 TemperatureHumidityPressure
High94 °F (Sep 4, 3:54 PM)97% (Aug 21, 3:54 AM)30.17 "Hg (Aug 21, 3:54 AM)
Low55 °F (Aug 25, 5:54 AM)33% (Sep 4, 4:54 PM)29.89 "Hg (Aug 23, 4:54 PM)
Average74 °F70%30.06 "Hg
* Reported Aug 21 3:54 AM — Sep 5 3:54 AM, Evansville, Weather by CustomWeather, © 2015

Note: Actual official high and low records may vary slightly from our data, if they occured in-between our weather recording intervals... More about our weather records

Advertising

Evansville weather history for previous 24 hours

 ConditionsComfort  
Time TempWeatherWind HumidityBarometerVisibility
3:54 AM
Sat, Sep 5
72 °FClear.No wind84%30.05 "Hg5 mi
2:54 AM74 °FClear.6 mph79%30.04 "Hg6 mi
1:54 AM76 °FClear.3 mph77%30.04 "Hg5 mi
12:54 AM74 °FFog.N/A88%30.04 "Hg5 mi
11:54 PM
Fri, Sep 4
75 °FClear.No wind85%30.04 "Hg5 mi
10:54 PM76 °FClear.No wind80%30.05 "Hg6 mi
9:54 PM77 °FClear.3 mph77%30.04 "Hg6 mi
8:54 PM79 °FClear.No wind72%30.02 "Hg7 mi
7:54 PM82 °FClear.No wind65%30.00 "Hg10 mi
6:54 PM87 °FSunny.3 mph51%29.98 "Hg8 mi
5:54 PM92 °FSunny.5 mph40%29.98 "Hg8 mi
4:54 PM94 °FSunny.6 mph33%29.98 "Hg9 mi
3:54 PM94 °FSunny.No wind35%29.98 "Hg9 mi
2:54 PM93 °FSunny.5 mph38%30.00 "Hg8 mi
1:54 PM92 °FScattered clouds.3 mph40%30.01 "Hg8 mi
12:54 PM90 °FPassing clouds.7 mph45%30.02 "Hg8 mi
11:54 AM90 °FSunny.5 mph47%30.03 "Hg8 mi
10:54 AM89 °FSunny.3 mph50%30.04 "Hg9 mi
9:54 AM85 °FSunny.3 mph57%30.04 "Hg8 mi
8:54 AM80 °FSunny.No wind74%30.03 "Hg6 mi
7:54 AM75 °FSunny.No wind85%30.03 "Hg5 mi
6:54 AM69 °FFog.No wind93%30.02 "Hg5 mi
5:54 AM70 °FFog.No wind93%30.00 "Hg3 mi
Weather by CustomWeather, © 2015

See weather overviewHow to use our weather pages